Vancleve, KY

6:25 PM EST on December 04, 2016 (GMT -0500)
Carroll

Weather History for KJKL - November, 2011

Change the Weather History Date:

Saturday, November 26, 2011

  Actual Average Record
Temperature  
Mean Temperature 58 °F 44 °F  
Max Temperature 67 °F 53 °F 74 °F (1990)
Min Temperature 48 °F 36 °F 17 °F (1991)
Degree Days  
Heating Degree Days 7 21  
Month to date heating degree days 312 417  
Since 1 July heating degree days 646 714  
Cooling Degree Days 0 0  
Month to date cooling degree days 3 0  
Year to date cooling degree days 1255 1150  
Growing Degree Days 7 (Base 50)    
Moisture  
Dew Point 39 °F    
Average Humidity 50    
Maximum Humidity 61    
Minimum Humidity 38    
Precipitation  
Precipitation 0.00 in 0.14 in 1.07 in (2007)
Month to date precipitation 4.24 3.39  
Year to date precipitation 54.59 43.59  
Snow  
Snow 0.00 in 0.10 in T in (2010)
Month to date snowfall T 0.4  
Since 1 July snowfall T 0.5  
Since 1 September snowfall T 0.5  
Snow Depth 0.00 in    
Sea Level Pressure  
Sea Level Pressure 30.16 in    
Wind  
Wind Speed 5 mph (SSW)    
Max Wind Speed 15 mph    
Max Gust Speed 26 mph    
Visibility 10 miles    
Events      
T = Trace of Precipitation, MM = Missing Value Source: NWS Daily Summary

Daily Weather History Graph

Daily Weather History Graph

Search for Another Location

Airport or City:

Trip Planner

Search our weather history database for the weather conditions in past years. The results will help you decide how hot, cold, wet, or windy it might be!

Date:

Astronomy

Nov. 26, 2011 Rise Set
Actual Time 7:24 AM EST 5:16 PM EST
Civil Twilight 6:55 AM EST 5:45 PM EST
Nautical Twilight 6:23 AM EST 6:17 PM EST
Astronomical Twilight 5:52 AM EST 6:48 PM EST
Moon 8:53 AM EST (11/26) 6:47 PM EST (11/26)
Length of Visible Light 10h 49m
Length of Day
9h 52m
Waxing Crescent, 3% of the Moon is Illuminated
Nov 26
Waxing Crescent
Dec 2
First Quarter
Dec 10
Full
Dec 17
Last Quarter
Dec 24
New

Hourly Weather History & Observations

Time (EST) Temp. Dew Point Humidity Pressure Visibility Wind Dir Wind Speed Gust Speed Precip Events Conditions
1:53 AM 50.0 °F 28.0 °F 43% 30.19 in 10.0 mi Variable 3.5 mph - N/A   Clear
2:53 AM 50.0 °F 28.9 °F 44% 30.19 in 10.0 mi SSW 4.6 mph - N/A   Clear
3:53 AM 50.0 °F 28.9 °F 44% 30.21 in 10.0 mi SW 3.5 mph - N/A   Clear
4:53 AM 48.9 °F 28.9 °F 46% 30.21 in 10.0 mi Variable 3.5 mph - N/A   Clear
5:53 AM 48.9 °F 30.9 °F 50% 30.22 in 10.0 mi SSW 3.5 mph - N/A   Clear
6:53 AM 48.9 °F 32.0 °F 52% 30.24 in 10.0 mi SSW 4.6 mph - N/A   Partly Cloudy
7:53 AM 48.9 °F 34.0 °F 56% 30.25 in 10.0 mi SSW 3.5 mph - N/A   Clear
8:53 AM 53.1 °F 37.9 °F 57% 30.26 in 10.0 mi Variable 3.5 mph - N/A   Mostly Cloudy
9:53 AM 57.2 °F 39.2 °F 51% 30.26 in 10.0 mi Calm Calm - N/A   Clear
10:53 AM 59.0 °F 41.0 °F 51% 30.24 in 10.0 mi Variable 3.5 mph - N/A   Mostly Cloudy
11:53 AM 63.0 °F 43.0 °F 48% 30.20 in 10.0 mi Variable 6.9 mph 16.1 mph N/A   Clear
12:53 PM 64.9 °F 43.0 °F 45% 30.17 in 10.0 mi South 9.2 mph 19.6 mph N/A   Mostly Cloudy
1:53 PM 66.0 °F 43.0 °F 43% 30.14 in 10.0 mi South 10.4 mph 19.6 mph N/A   Partly Cloudy
2:53 PM 66.0 °F 43.0 °F 43% 30.12 in 10.0 mi South 9.2 mph 18.4 mph N/A   Scattered Clouds
3:53 PM 64.0 °F 43.0 °F 46% 30.13 in 10.0 mi Calm Calm - N/A   Scattered Clouds
4:53 PM 63.0 °F 43.0 °F 48% 30.11 in 10.0 mi South 10.4 mph 19.6 mph N/A   Mostly Cloudy
5:53 PM 61.0 °F 43.0 °F 52% 30.11 in 10.0 mi Variable 6.9 mph - N/A   Clear
6:53 PM 59.0 °F 42.8 °F 55% 30.10 in 10.0 mi South 3.5 mph - N/A   Clear
7:53 PM 59.0 °F 43.0 °F 55% 30.08 in 10.0 mi Variable 3.5 mph - N/A   Clear
8:53 PM 57.9 °F 43.0 °F 58% 30.06 in 10.0 mi South 3.5 mph - N/A   Clear
9:53 PM 57.9 °F 42.1 °F 56% 30.05 in 10.0 mi South 5.8 mph - N/A   Clear
10:53 PM 55.4 °F 42.8 °F 63% 30.05 in 10.0 mi Variable 3.5 mph - N/A   Clear
11:53 PM 55.9 °F 42.1 °F 60% 30.02 in 10.0 mi Calm Calm - N/A   Clear